Date String (YYYY-MM-DD hh:mm:ss) UTC,Instrument flags,absolute air pressure of the measurement (hPa),sample flow rate (lpm),inlet stack bypass flow (lpm),air temperature of the measurement (°C),ambient temperature measured by the external sensor (°C),aerosol sample conditioner tube jacket temperature (°C),OPC LED temperature (°C),internal box temperature (°C),relative humidity of the measurement (%),span deviation,mass concentration of particles derived from Lorenz-Mie calculation of OPC scattering (μg/m³),mass concentration of particles derived from Lorenz-Mie calculation of OPC scattering (μg/m³),mass concentration of particles derived from Lorenz-Mie calculation of OPC scattering (μg/m³)
DateTimeUTC,F1_M11,P_M11,Q1_M11,Q2_M11,T1_M11,T2_M11,T3_M11,T4_M11,T5_M11,U1_M11,ZSPAN_M11,X2_M11,X0_M11,X1_M11
2023-12-29 06:00:00,SystemResetWarning,0834.3,4.99,000.00,020.5,019.3,000.0,028.9,021.8,8.0,0000.0,0001.07,0003.01,0000.92
2023-12-29 06:01:00,SystemResetWarning,0834.4,4.99,000.00,020.5,019.3,000.0,028.9,021.8,8.0,0000.0,0001.09,0001.95,0000.92
2023-12-29 06:02:00,SystemResetWarning,0834.4,5.00,000.00,020.5,019.3,000.0,028.9,021.8,8.0,0000.0,0001.07,0001.60,0000.92
2023-12-29 06:03:00,SystemResetWarning,0834.4,5.00,000.00,020.5,019.3,000.0,028.9,021.8,8.0,0000.0,0001.10,0001.64,0000.94
2023-12-29 06:04:00,SystemResetWarning,0834.4,5.00,000.00,020.5,019.3,000.0,028.9,021.8,8.0,0000.0,0001.09,0001.60,0000.95
2023-12-29 06:05:00,SystemResetWarning,0834.3,5.00,000.00,020.5,019.2,000.0,028.9,021.8,8.0,0000.0,0001.09,0001.59,0000.96
2023-12-29 06:06:00,SystemResetWarning,0834.4,5.00,000.00,020.5,019.2,000.0,028.9,021.8,8.0,0000.0,0001.09,0001.51,0000.96
2023-12-29 06:07:00,SystemResetWarning,0834.3,5.00,000.00,020.4,019.2,000.0,028.8,021.8,8.0,0000.0,0001.09,0001.48,0000.96
2023-12-29 06:08:00,SystemResetWarning,0834.3,5.01,000.00,020.4,019.2,000.0,028.8,021.8,8.1,0000.0,0001.09,0001.48,0000.96
2023-12-29 06:09:00,SystemResetWarning,0834.3,5.01,000.00,020.4,019.2,000.0,028.8,021.8,8.1,0000.0,0001.05,0001.38,0000.95
2023-12-29 06:10:00,SystemResetWarning,0834.3,5.01,000.00,020.4,019.2,000.0,028.8,021.7,8.1,0000.0,0001.03,0001.33,0000.95
2023-12-29 06:11:00,SystemResetWarning,0834.3,5.00,000.00,020.4,019.2,000.0,028.8,021.7,8.1,0000.0,0001.02,0001.34,0000.94
2023-12-29 06:12:00,SystemResetWarning,0834.4,5.00,000.00,020.4,019.1,000.0,028.8,021.7,8.1,0000.0,0001.03,0001.38,0000.94
2023-12-29 06:13:00,SystemResetWarning,0834.3,5.00,000.00,020.4,019.1,000.0,028.8,021.7,8.1,0000.0,0001.03,0001.39,0000.95
2023-12-29 06:14:00,SystemResetWarning,0834.3,5.00,000.00,020.4,019.1,000.0,028.8,021.7,8.2,0000.0,0001.01,0001.34,0000.94
2023-12-29 06:15:00,SystemResetWarning,0834.3,5.00,000.00,020.4,019.1,000.0,028.8,021.7,8.1,0000.0,0001.00,0001.35,0000.93
2023-12-29 06:16:00,SystemResetWarning,0834.3,5.00,000.00,020.4,019.1,000.0,028.8,021.7,8.1,0000.0,0001.00,0001.36,0000.92
2023-12-29 06:17:00,SystemResetWarning,0834.4,5.01,000.00,020.4,019.1,000.0,028.8,021.7,8.1,0000.0,0001.00,0001.36,0000.91
2023-12-29 06:18:00,SystemResetWarning,0834.4,5.01,000.00,020.3,019.1,000.0,028.8,021.7,8.1,0000.0,0001.00,0001.37,0000.91
2023-12-29 06:19:00,SystemResetWarning,0834.3,4.99,000.00,020.3,019.1,000.0,028.7,021.7,8.1,0000.0,0000.99,0001.44,0000.91
2023-12-29 06:20:00,SystemResetWarning,0834.4,5.00,000.00,020.3,019.1,000.0,028.7,021.7,8.0,0000.0,0000.99,0001.45,0000.91
2023-12-29 06:21:00,SystemResetWarning,0834.4,5.00,000.00,020.3,019.1,000.0,028.7,021.7,8.0,0000.0,0001.01,0001.59,0000.92
2023-12-29 06:22:00,SystemResetWarning,0834.3,4.99,000.00,020.3,019.1,000.0,028.7,021.6,8.0,0000.0,0001.02,0001.65,0000.93
2023-12-29 06:23:00,SystemResetWarning,0834.4,4.99,000.00,020.3,019.1,000.0,028.7,021.6,8.1,0000.0,0001.04,0001.66,0000.94
2023-12-29 06:24:00,SystemResetWarning,0834.3,5.00,000.00,020.3,019.1,000.0,028.7,021.6,8.1,0000.0,0001.06,0001.69,0000.95
2023-12-29 06:25:00,SystemResetWarning,0834.4,5.00,000.00,020.3,019.1,000.0,028.7,021.6,8.1,0000.0,0001.12,0001.77,0000.98
2023-12-29 06:26:00,SystemResetWarning,0834.6,5.00,000.00,020.3,019.0,000.0,028.7,021.6,8.1,0000.0,0001.15,0001.85,0000.99
2023-12-29 06:27:00,SystemResetWarning,0834.4,5.01,000.00,020.3,019.0,000.0,028.6,021.6,8.2,0000.0,0001.15,0001.83,0001.00
2023-12-29 06:28:00,SystemResetWarning,0834.2,5.00,000.00,020.3,019.0,000.0,028.6,021.6,8.1,0000.0,0001.14,0001.82,0001.00
2023-12-29 06:29:00,SystemResetWarning,0834.4,5.01,000.00,020.3,019.0,000.0,028.6,021.6,8.1,0000.0,0001.14,0001.82,0001.00
2023-12-29 06:30:00,SystemResetWarning,0834.3,5.01,000.00,020.3,019.0,000.0,028.6,021.6,8.1,0000.0,0001.15,0001.72,0001.01
2023-12-29 06:31:00,SystemResetWarning,0834.3,5.00,000.00,020.2,019.0,000.0,028.6,021.6,8.1,0000.0,0001.18,0001.78,0001.03
2023-12-29 06:32:00,SystemResetWarning,0834.3,4.99,000.00,020.2,019.0,000.0,028.6,021.6,8.1,0000.0,0001.18,0001.72,0001.03
2023-12-29 06:33:00,SystemResetWarning,0834.3,4.99,000.00,020.2,019.0,000.0,028.6,021.6,8.1,0000.0,0001.19,0002.05,0001.04
2023-12-29 06:34:00,SystemResetWarning,0834.5,4.99,000.00,020.2,019.0,000.0,028.6,021.6,8.1,0000.0,0001.17,0002.35,0001.03
2023-12-29 06:35:00,SystemResetWarning,0834.7,5.01,000.00,020.2,019.0,000.0,028.6,021.5,8.2,0000.0,0001.14,0002.39,0001.02
2023-12-29 06:36:00,SystemResetWarning,0834.5,5.01,000.00,020.2,019.0,000.0,028.6,021.5,8.2,0000.0,0001.09,0002.31,0001.00
2023-12-29 06:37:00,SystemResetWarning,0834.5,5.00,000.00,020.2,019.0,000.0,028.6,021.5,8.2,0000.0,0001.07,0002.27,0000.98
2023-12-29 06:38:00,SystemResetWarning,0834.4,4.99,000.00,020.2,019.0,000.0,028.6,021.5,8.2,0000.0,0001.07,0002.27,0000.98
2023-12-29 06:39:00,SystemResetWarning,0834.3,5.00,000.00,020.2,019.0,000.0,028.6,021.5,8.2,0000.0,0001.10,0002.31,0000.98
2023-12-29 06:40:00,SystemResetWarning,0834.4,4.99,000.00,020.2,019.0,000.0,028.5,021.5,8.1,0000.0,0001.10,0002.92,0000.98
2023-12-29 06:41:00,SystemResetWarning,0834.3,5.00,000.00,020.2,018.9,000.0,028.5,021.5,8.1,0000.0,0001.10,0003.21,0000.97
2023-12-29 06:42:00,SystemResetWarning,0834.4,5.00,000.00,020.1,018.9,000.0,028.5,021.5,8.1,0000.0,0001.08,0003.18,0000.94
2023-12-29 06:43:00,SystemResetWarning,0834.6,5.01,000.00,020.1,018.9,000.0,028.5,021.4,8.1,0000.0,0001.07,0003.09,0000.93
2023-12-29 06:44:00,SystemResetWarning,0834.3,5.01,000.00,020.1,018.9,000.0,028.5,021.4,8.2,0000.0,0001.06,0002.87,0000.93
2023-12-29 06:45:00,SystemResetWarning,0834.5,4.99,000.00,020.1,018.9,000.0,028.5,021.4,8.2,0000.0,0001.07,0002.35,0000.94
2023-12-29 06:46:00,SystemResetWarning,0834.4,4.99,000.00,020.1,018.9,000.0,028.5,021.4,8.2,0000.0,0001.07,0002.28,0000.95
2023-12-29 06:47:00,SystemResetWarning,0834.2,5.00,000.00,020.1,018.9,000.0,028.5,021.4,8.2,0000.0,0001.09,0002.31,0000.95
2023-12-29 06:48:00,SystemResetWarning,0834.4,5.01,000.00,020.1,018.9,000.0,028.5,021.4,8.2,0000.0,0001.11,0002.33,0000.96
2023-12-29 06:49:00,SystemResetWarning,0834.5,5.01,000.00,020.1,018.8,000.0,028.5,021.4,8.2,0000.0,0001.11,0002.34,0000.96
2023-12-29 06:50:00,SystemResetWarning,0834.4,5.00,000.00,020.1,018.8,000.0,028.5,021.4,8.2,0000.0,0001.10,0002.35,0000.96
2023-12-29 06:51:00,SystemResetWarning,0834.3,5.00,000.00,020.1,018.8,000.0,028.5,021.3,8.2,0000.0,0001.09,0002.09,0000.96
2023-12-29 06:52:00,SystemResetWarning,0834.5,5.00,000.00,020.0,018.8,000.0,028.4,021.4,8.2,0000.0,0001.11,0001.48,0000.97
2023-12-29 06:53:00,SystemResetWarning,0834.4,4.99,000.00,020.0,018.8,000.0,028.4,021.4,8.1,0000.0,0001.10,0001.47,0000.98
2023-12-29 06:54:00,SystemResetWarning,0834.3,4.99,000.00,020.0,018.8,000.0,028.4,021.4,8.1,0000.0,0001.10,0001.46,0000.99
2023-12-29 06:55:00,SystemResetWarning,0834.3,5.01,000.00,020.0,018.8,000.0,028.4,021.4,8.1,0000.0,0001.09,0001.44,0000.98
2023-12-29 06:56:00,SystemResetWarning,0834.3,5.00,000.00,020.0,018.8,000.0,028.4,021.3,8.1,0000.0,0001.10,0001.45,0000.95
2023-12-29 06:57:00,SystemResetWarning,0834.4,5.01,000.00,020.0,018.8,000.0,028.4,021.3,8.2,0000.0,0001.08,0001.41,0000.95
2023-12-29 06:58:00,SystemResetWarning,0834.4,5.01,000.00,020.0,018.8,000.0,028.4,021.3,8.2,0000.0,0001.08,0001.48,0000.94
2023-12-29 06:59:00,SystemResetWarning,0834.3,5.00,000.00,020.0,018.8,000.0,028.4,021.3,8.2,0000.0,0001.08,0001.61,0000.95
